Regional Weather Roundup
Issued by NWS

Home | Current Version | Previous Version | Graphics & Text | Print | Product List | Glossary On
Versions: 1 2 3 4 5 6 7 8 9 10 11 12 13 14 15 16 17 18 19 20 21 22 23 24 25 26 27 28 29 30 31 32 33 34 35 36 37 38 39 40 41 42 43 44 45 46 47 48 49 50
000
ASUS45 KCYS 060210
RWRWY

WYOMING REGIONAL WEATHER ROUNDUP
NATIONAL WEATHER SERVICE CHEYENNE WY
700 PM MST THU MAR 05 2015

NOTE:  "FAIR" INDICATES FEW OR NO CLOUDS BELOW 12,000 FEET
WITH NO SIGNIFICANT WEATHER AND/OR OBSTRUCTIONS TO VISIBILITY.

WYZ001-060300-
YELLOWSTONE NATIONAL PARK

CITY           SKY/WX    TMP DP  RH WIND       PRES   REMARKS
LK YELLOWSTONE   N/A     23   8  52 CALM      30.32R
W YELLOWSTONE  NOT AVBL

$$
WYZ002>013-054>058-071-098>099-060300-
NORTHERN WYOMING

CITY           SKY/WX    TMP DP  RH WIND       PRES   REMARKS
JACKSON        PTCLDY    30  16  55 S8        30.31R WCI  23
CODY           CLOUDY    39  18  41 W8        30.17S WCI  34
GREYBULL       FAIR      34  16  47 SE6       30.21R WCI  29
WORLAND        FAIR      29  20  69 S7        30.20R WCI  22
SHERIDAN       FAIR      31  21  66 S5        30.14S WCI  26
BUFFALO        FAIR      35  13  40 SW8       30.16S WCI  29
GILLETTE       FAIR      34  19  54 W10       30.15R WCI  26
HULETT         FAIR      36  18  48 SW7       30.14S WCI  30
NEWCASTLE      FAIR      32  14  47 N7        30.16S WCI  26

$$
WYZ014>020-022>026-101>103-060300-
CENTRAL WYOMING

CITY           SKY/WX    TMP DP  RH WIND       PRES   REMARKS
BIG PINEY      FAIR      29  12  49 N16       30.31S WCI  17
PINEDALE       FAIR      23  12  63 NW12      30.31R WCI  12
DUBOIS         FAIR      28   9  43 NW18      30.24R WCI  16
LANDER         MOCLDY    20  13  74 CALM      30.21R
RIVERTON       FAIR      18  10  71 SW6       30.23R WCI  10
CASPER         FAIR      28  19  69 SW12      30.20R WCI  18
DOUGLAS        FAIR      26  17  68 N5        30.20S WCI  20

$$
WYZ021-027>030-104>119-060300-
SOUTHERN WYOMING

CITY           SKY/WX    TMP DP  RH WIND       PRES   REMARKS
EVANSTON       FAIR      26  14  60 SW9       30.38R WCI  17
FORT BRIDGER   FAIR      31  19  60 W12       30.39R WCI  22
ROCK SPRINGS   FAIR      31  18  58 W20       30.30R WCI  19
DIXON          FAIR      22  15  74 NE6       30.37R WCI  15
RAWLINS        FAIR      28  15  58 W16       30.26S WCI  16
SARATOGA       FAIR      23  12  63 S8        30.30S WCI  14
LARAMIE        FAIR      26  12  55 W15       30.22R WCI  14
CHEYENNE       FAIR      34  14  43 NW3       30.22R
TORRINGTON     FAIR      33  19  56 W8        30.21R WCI  26
PINE BLUFFS    FAIR      32  18  55 W7        30.24R WCI  26

$$



USA.gov is the U.S. government's official web portal to all federal, state and local government web resources and services.